EW4120 Weather Reports


Display with metric or nautical units.
time (UTC)temp
F
wind
direction
speed
MPH
gust
MPH
rain 1hr
in
rain 24hr
in
rain mn
in
humidity
%
barometer
mb
20260901045537 71 0.0 0.0 0.00 0.06 0.00 98 1021.1
20260901044537 71 0.0 0.0 0.00 0.06 0.00 98 1021.1
20260901043557 71 0.0 0.0 0.00 0.06 0.00 98 1021.1
20260901042557 71 0.0 0.0 0.00 0.06 0.00 98 1021.1
20260901041516 71 0.0 0.0 0.00 0.06 0.00 98 1021.1
20260901040557 71 0.0 0.0 0.01 0.06 0.00 98 1021.0
20260901035517 71 0.0 0.0 0.01 0.06 0.06 98 1021.0
20260901034517 71 0.0 0.0 0.01 0.06 0.06 98 1020.9
20260901033557 72 0.0 0.0 0.01 0.06 0.06 97 1021.0
20260901032537 72 0.0 0.0 0.01 0.06 0.06 97 1020.9
20260901031537 72 0.0 0.0 0.01 0.06 0.06 97 1020.9
20260901030517 72 0.0 0.0 0.00 0.05 0.05 98 1021.0
20260901025537 72 0.0 0.0 0.00 0.05 0.05 97 1020.9
20260901024537 72 0.0 0.0 0.00 0.05 0.05 97 1020.9
20260901023557 72 0.0 0.0 0.00 0.05 0.05 97 1020.8
20260901022517 72 0.0 0.0 0.00 0.05 0.05 97 1020.7
20260901021617 72 0.0 0.0 0.00 0.05 0.05 97 1020.8
20260901020517 72 0.0 0.0 0.00 0.05 0.05 97 1020.8
20260901015537 73 0.0 0.0 0.00 0.05 0.05 96 1020.6
20260901014537 73 0.0 0.0 0.00 0.05 0.05 96 1020.6
20260901013657 73 0.0 0.0 0.00 0.05 0.05 96 1020.5
20260901012537 73 0.0 0.0 0.00 0.05 0.05 96 1020.2
20260901011537 73 0.0 0.0 0.00 0.05 0.05 95 1020.2
20260901010517 74 0.0 0.0 0.00 0.05 0.05 95 1020.0
20260901005537 74 0.0 0.0 0.00 0.05 0.05 95 1019.8
20260901004517 74 0.0 0.0 0.00 0.05 0.05 94 1019.8
20260901003517 74 0.0 0.0 0.00 0.05 0.05 93 1019.7
20260901002517 75 0.0 0.0 0.00 0.05 0.05 93 1019.6
20260901001517 76 0.0 0.0 0.00 0.05 0.05 92 1019.6
20260901000537 76 0.0 0.0 0.00 0.05 0.05 90 1019.5
20260831235517 77 0.0 0.0 0.00 0.05 0.05 89 1019.4
20260831234617 78 0.0 0.0 0.00 0.05 0.05 89 1019.5
20260831233537 80 0.0 0.0 0.00 0.05 0.05 86 1019.4
20260831232517 82 0.0 0.0 0.00 0.05 0.05 84 1019.6
20260831231537 83 0.0 0.0 0.00 0.05 0.05 81 1019.6
20260831230557 86 0.0 0.0 0.00 0.05 0.05 78 1019.7
20260831225557 87 0.0 0.0 0.00 0.05 0.05 77 1019.8
20260831224537 88 0.0 0.0 0.00 0.05 0.05 74 1019.9
20260831223556 88 0.0 0.0 0.00 0.05 0.05 72 1020.0
20260831222537 89 0.0 1.0 0.00 0.05 0.05 73 1020.2
20260831221516 88 0.0 2.0 0.00 0.05 0.05 69 1020.2
20260831220617 87 0.0 1.0 0.00 0.05 0.05 72 1020.3
20260831215516 86 315 1.0 3.0 0.00 0.05 0.05 71 1020.3
20260831214536 86 0.0 2.0 0.00 0.05 0.05 74 1020.3
20260831213556 85 0.0 2.0 0.00 0.05 0.05 74 1020.2
20260831212536 84 0.0 4.0 0.00 0.05 0.05 77 1020.3
20260831211617 83 0.0 2.0 0.00 0.05 0.05 81 1020.3
20260831210516 80 315 1.0 3.0 0.00 0.05 0.05 85 1020.2
20260831205516 79 0.0 1.0 0.00 0.05 0.05 87 1020.3
20260831204616 79 0.0 4.0 0.00 0.05 0.05 87 1020.3
20260831203536 79 0.0 3.0 0.00 0.05 0.05 88 1020.6
20260831202536 79 0.0 1.0 0.00 0.05 0.05 87 1020.8
20260831201516 81 0.0 3.0 0.00 0.05 0.05 84 1021.0
20260831200516 85 0.0 1.0 0.00 0.05 0.05 75 1020.9
20260831195516 87 45 2.0 8.0 0.00 0.05 0.05 68 1020.8
20260831194516 89 23 2.0 6.0 0.00 0.05 0.05 67 1020.8
20260831193516 89 248 1.0 5.0 0.00 0.05 0.05 67 1020.6
20260831192516 89 0.0 3.0 0.00 0.05 0.05 66 1020.6
20260831191536 90 0.0 1.0 0.00 0.05 0.05 65 1020.6
20260831190516 90 0.0 2.0 0.00 0.06 0.05 66 1020.8
20260831185516 92 23 1.0 5.0 0.00 0.06 0.05 64 1020.9
20260831184536 91 45 1.0 3.0 0.00 0.06 0.05 68 1021.0
20260831183516 91 0.0 2.0 0.00 0.06 0.05 67 1021.0
20260831182516 91 248 1.0 3.0 0.00 0.06 0.05 65 1021.3
20260831181536 91 0.0 3.0 0.00 0.06 0.05 66 1021.4
20260831180556 90 0.0 3.0 0.00 0.06 0.05 68 1021.5
20260831175516 90 0.0 6.0 0.00 0.06 0.05 68 1021.6
20260831174516 89 0.0 4.0 0.00 0.06 0.05 68 1021.7
20260831173656 89 315 1.0 3.0 0.00 0.06 0.05 70 1021.8
20260831172556 88 45 1.0 3.0 0.01 0.06 0.05 70 1021.8
20260831171536 88 0.0 0.0 0.01 0.06 0.05 73 1021.9
20260831170536 87 23 1.0 4.0 0.02 0.06 0.05 71 1021.9
20260831165516 87 248 2.0 6.0 0.02 0.06 0.05 72 1021.9
20260831164516 87 45 1.0 3.0 0.02 0.06 0.05 76 1022.0
20260831163556 86 0.0 3.0 0.02 0.06 0.05 76 1022.1
20260831162516 86 0.0 1.0 0.01 0.05 0.04 78 1022.2
20260831161536 85 0.0 2.0 0.01 0.05 0.04 79 1022.3
20260831155616 84 0.0 3.0 0.00 0.04 0.03 78 1022.3
20260831154516 84 0.0 4.0 0.00 0.04 0.03 80 1022.3
20260831153516 83 0.0 3.0 0.01 0.04 0.03 80 1022.3
20260831152516 83 315 1.0 3.0 0.01 0.04 0.03 81 1022.4
20260831151536 82 23 1.0 5.0 0.01 0.04 0.03 83 1022.3
20260831150536 82 0.0 1.0 0.01 0.04 0.03 83 1022.4
20260831145516 81 23 1.0 4.0 0.01 0.04 0.03 85 1022.6
20260831144556 81 0.0 2.0 0.01 0.04 0.03 85 1022.5
20260831143516 80 0.0 1.0 0.01 0.03 0.02 88 1022.5
20260831142516 79 0.0 2.0 0.01 0.03 0.02 88 1022.4
20260831141516 79 0.0 3.0 0.01 0.03 0.02 88 1022.4
20260831140515 78 0.0 3.0 0.01 0.03 0.02 91 1022.3
20260831135536 77 0.0 3.0 0.01 0.03 0.02 93 1022.3
20260831134515 76 0.0 2.0 0.01 0.03 0.02 95 1022.2
20260831133616 75 23 1.0 3.0 0.00 0.02 0.01 98 1022.3
20260831132536 74 23 1.0 4.0 0.00 0.02 0.01 100 1022.2
20260831131636 73 0.0 2.0 0.00 0.02 0.01 100 1022.2
20260831130555 72 0.0 1.0 0.00 0.02 0.01 100 1022.2
20260831125515 71 0.0 0.0 0.00 0.02 0.01 100 1022.2
20260831124515 70 0.0 0.0 0.00 0.02 0.01 100 1022.2
20260831123535 69 0.0 0.0 0.00 0.02 0.01 100 1022.2
20260831122535 68 0.0 0.0 0.00 0.02 0.01 99 1022.1
20260831121515 67 0.0 0.0 0.00 0.02 0.01 99 1022.2
20260831115535 66 0.0 0.0 0.00 0.02 0.01 99 1022.0
20260831114515 65 0.0 0.0 0.00 0.02 0.01 99 1022.0
20260831113555 65 0.0 0.0 0.00 0.02 0.01 99 1022.0
20260831112515 65 0.0 0.0 0.00 0.02 0.01 99 1021.9
20260831111535 64 0.0 0.0 0.00 0.02 0.01 99 1022.1
20260831110515 64 0.0 0.0 0.00 0.02 0.01 99 1022.0
20260831105515 64 0.0 0.0 0.00 0.02 0.01 98 1021.9
20260831104515 64 0.0 0.0 0.01 0.02 0.01 99 1022.0
20260831103515 64 0.0 0.0 0.01 0.02 0.01 99 1022.0
20260831102515 64 0.0 0.0 0.01 0.02 0.01 99 1022.0
20260831101535 64 0.0 0.0 0.01 0.02 0.01 99 1021.9
20260831100535 64 0.0 0.0 0.01 0.02 0.01 99 1021.8
20260831095515 64 0.0 0.0 0.01 0.02 0.01 98 1021.9
20260831094638 64 0.0 0.0 0.00 0.01 0.00 98 1021.8
20260831093517 64 0.0 0.0 0.00 0.01 0.00 98 1021.7
20260831092517 65 0.0 0.0 0.00 0.01 0.00 98 1021.7
20260831091517 65 0.0 0.0 0.00 0.01 0.00 99 1021.7
20260831090537 65 0.0 0.0 0.00 0.01 0.00 98 1021.6
20260831085537 65 0.0 0.0 0.00 0.01 0.00 98 1021.6
20260831084659 65 0.0 0.0 0.00 0.01 0.00 98 1021.6
20260831083637 65 0.0 0.0 0.00 0.01 0.00 98 1021.7
20260831082517 65 0.0 0.0 0.00 0.01 0.00 99 1021.7
20260831081517 65 0.0 0.0 0.00 0.01 0.00 98 1021.7
20260831080517 65 0.0 0.0 0.00 0.01 0.00 98 1021.7
20260831075537 65 0.0 0.0 0.00 0.01 0.00 98 1021.6
20260831074537 66 0.0 0.0 0.00 0.01 0.00 98 1021.6
20260831073517 65 0.0 0.0 0.00 0.01 0.00 98 1021.6
20260831072517 65 0.0 0.0 0.00 0.01 0.00 98 1021.6
20260831071557 66 0.0 0.0 0.00 0.01 0.00 98 1021.6
20260831070617 66 0.0 0.0 0.00 0.01 0.00 98 1021.7
20260831065557 66 0.0 0.0 0.00 0.01 0.00 98 1021.7
20260831064537 66 0.0 0.0 0.00 0.01 0.00 98 1021.7
20260831063517 66 0.0 0.0 0.00 0.01 0.00 98 1021.6
20260831062638 66 0.0 0.0 0.00 0.01 0.00 98 1021.7
20260831061638 66 0.0 0.0 0.00 0.01 0.00 98 1021.7
20260831060517 67 0.0 0.0 0.00 0.01 0.00 98 1021.9
20260831055517 67 0.0 0.0 0.00 0.01 0.00 98 1021.9
20260831054517 67 0.0 0.0 0.00 0.01 0.00 98 1021.9
20260831053638 66 0.0 0.0 0.00 0.01 0.00 97 1021.9
20260831052557 67 0.0 0.0 0.00 0.01 0.00 97 1021.8
20260831051537 67 0.0 0.0 0.00 0.01 0.00 97 1021.9
20260831050537 67 0.0 0.0 0.00 0.01 0.00 97 1022.0